XM-4 (BLUES)

Last updated on Nov. 17, 2019, 4:19 a.m. UTC

1 29520U 06049A   19320.58670506 -.00000013  00000-0  00000+0 0  9993
2 29520   0.0046  17.0141 0000413 217.3923 276.9206  1.00270362 47889
UTC
Height (km)
Latitude
Longitude
Inclination
Orbital Period
UTC large
Height (km)
Speed (km/s)
/
Latitude / Longitude
Inclination (degrees)
Orbital Period (minutes)
Azimuth
Elevation
Range (km)
Doppler Factor
iOS Compass Heading
iOS Angle

Next 30 passes for location: Hong Kong

Rise time Rise Azimuth (degrees) Set time Set Azimuth (degrees) Duration Max altitude (degrees)

No matching passes for this satellites